Waukegan, IL

12:57 AM CST on January 21, 2018 (GMT -0600)
Waukegan Regional

Weather History for KUGN - February, 2013

Change the Weather History Date:

Tuesday, February 19, 2013

  Actual Average Record
Temperature  
Mean Temperature 22 °F -  
Max Temperature 33 °F 35 °F 60 °F (2016)
Min Temperature 10 °F 19 °F -14 °F (2015)
Degree Days  
Heating Degree Days 43 38  
Month to date heating degree days 798 769  
Since 1 July heating degree days 4258 4620  
Cooling Degree Days 0 0  
Month to date cooling degree days 0 0  
Year to date cooling degree days 0 0  
Moisture  
Dew Point 9 °F    
Average Humidity 73    
Maximum Humidity 84    
Minimum Humidity 61    
Precipitation  
Precipitation 0.02 in 0.07 in 0.40 in (2002)
Month to date precipitation 0.41 1.10  
Year to date precipitation 1.69 2.49  
Sea Level Pressure  
Sea Level Pressure 29.81 in    
Wind  
Wind Speed 13 mph (West)    
Max Wind Speed 21 mph    
Max Gust Speed 36 mph    
Visibility 5 miles    
Events Fog , Rain , Snow    
T = Trace of Precipitation, MM = Missing Value Source: NWS Daily Summary

Daily Weather History Graph

Daily Weather History Graph

Search for Another Location

Airport or City:

Trip Planner

Search our weather history database for the weather conditions in past years. The results will help you decide how hot, cold, wet, or windy it might be!

Date:

Astronomy

Feb. 19, 2013 Rise Set
Actual Time 6:41 AM CST 5:29 PM CST
Civil Twilight 6:13 AM CST 5:57 PM CST
Nautical Twilight 5:40 AM CST 6:30 PM CST
Astronomical Twilight 5:08 AM CST 7:03 PM CST
Moon 11:56 AM CST (2/19) 2:17 AM CST (2/19)
Length of Visible Light 11h 44m
Length of Day
10h 47m
Waxing Gibbous, 67% of the Moon is Illuminated
Feb 19
Waxing Gibbous
Feb 25
Full
Mar 4
Last Quarter
Mar 11
New
Mar 19
First Quarter

Hourly Weather History & Observations

Time (CST) Temp. Windchill Dew Point Humidity Pressure Visibility Wind Dir Wind Speed Gust Speed Precip Events Conditions
12:00 AM 32.0 °F 20.8 °F 28.4 °F 87% 29.49 in 4.0 mi West 17.3 mph 31.1 mph 0.00 in Snow Light Snow
12:52 AM 28.0 °F 18.1 °F 24.1 °F 85% 29.55 in 10.0 mi WSW 11.5 mph 25.3 mph 0.00 in   Overcast
1:52 AM 24.1 °F 10.6 °F 19.9 °F 84% 29.58 in 10.0 mi West 17.3 mph 27.6 mph N/A   Overcast
2:52 AM 21.0 °F 8.6 °F 17.1 °F 85% 29.61 in 9.0 mi WSW 12.7 mph 35.7 mph N/A   Overcast
3:52 AM 19.0 °F 6.8 °F 14.0 °F 81% 29.64 in 4.0 mi WSW 11.5 mph 27.6 mph 0.00 in Snow Light Snow
4:20 AM 17.6 °F 4.3 °F 14.0 °F 86% 29.61 in 2.5 mi WSW 12.7 mph 24.2 mph 0.00 in Snow Light Snow
4:30 AM 17.6 °F 3.2 °F 12.2 °F 79% 29.62 in 4.0 mi WSW 15.0 mph 26.5 mph 0.00 in Snow Light Snow
4:52 AM 17.1 °F 5.0 °F 12.0 °F 81% 29.67 in 5.0 mi WSW 10.4 mph 24.2 mph 0.00 in Snow Light Snow
5:04 AM 17.6 °F 5.7 °F 12.2 °F 79% 29.63 in 2.5 mi West 10.4 mph 24.2 mph 0.00 in Snow Light Snow
5:15 AM 17.6 °F 2.7 °F 10.4 °F 73% 29.64 in 3.0 mi WSW 16.1 mph 24.2 mph 0.00 in Snow Light Snow
5:26 AM 17.6 °F 5.7 °F 12.2 °F 79% 29.64 in 2.5 mi West 10.4 mph 25.3 mph 0.00 in Snow Light Snow
5:37 AM 15.8 °F 2.1 °F 10.4 °F 79% 29.64 in 3.0 mi West 12.7 mph 32.2 mph 0.00 in Snow Light Snow
5:52 AM 16.0 °F 2.3 °F 9.0 °F 74% 29.68 in 4.0 mi West 12.7 mph 29.9 mph 0.00 in Snow Light Snow
6:03 AM 15.8 °F 0.9 °F 8.6 °F 73% 29.64 in 2.0 mi WSW 15.0 mph 26.5 mph 0.00 in Snow Light Snow
6:41 AM 14.0 °F -2.5 °F 8.6 °F 79% 29.66 in 1.5 mi West 17.3 mph 31.1 mph 0.00 in Snow Light Snow
6:52 AM 14.0 °F 0.5 °F 9.0 °F 80% 29.70 in 1.2 mi West 11.5 mph 25.3 mph 0.00 in Snow Light Snow
6:58 AM 14.0 °F -2.5 °F 10.4 °F 86% 29.67 in 0.8 mi West 17.3 mph 28.8 mph 0.00 in Snow Light Snow
7:07 AM 12.2 °F -2.5 °F 8.6 °F 85% 29.67 in 0.2 mi West 12.7 mph 31.1 mph 0.00 in Fog , Snow Snow
7:22 AM 12.2 °F -2.5 °F 8.6 °F 85% 29.68 in 0.2 mi West 12.7 mph 28.8 mph 0.00 in Fog , Snow Snow
7:29 AM 12.2 °F -3.7 °F 8.6 °F 85% 29.68 in 0.5 mi West 15.0 mph 27.6 mph 0.00 in Fog , Snow Light Snow
7:41 AM 12.2 °F -2.5 °F 8.6 °F 85% 29.69 in 1.0 mi West 12.7 mph 26.5 mph 0.00 in Snow Light Snow
7:52 AM 12.9 °F -0.9 °F 8.1 °F 81% 29.73 in 1.0 mi West 11.5 mph 26.5 mph 0.00 in Snow Light Snow
8:22 AM 12.2 °F -4.3 °F 6.8 °F 79% 29.71 in 3.0 mi West 16.1 mph 33.4 mph 0.00 in Snow Light Snow
8:34 AM 12.2 °F -3.1 °F 6.8 °F 79% 29.72 in 4.0 mi WSW 13.8 mph 29.9 mph 0.00 in Rain Light Freezing Rain
8:52 AM 12.9 °F -4.4 °F 6.1 °F 74% 29.77 in 5.0 mi West 18.4 mph 28.8 mph 0.00 in Rain Light Freezing Rain
9:02 AM 12.2 °F -1.0 °F 6.8 °F 79% 29.73 in 7.0 mi West 10.4 mph 23.0 mph 0.00 in Snow Light Snow
9:52 AM 14.0 °F -1.4 °F 6.1 °F 71% 29.80 in 4.0 mi West 15.0 mph 29.9 mph 0.00 in Snow Light Snow
10:52 AM 15.1 °F 1.1 °F 5.0 °F 64% 29.84 in 8.0 mi West 12.7 mph 26.5 mph 0.00 in   Overcast
12:52 PM 15.1 °F 1.8 °F 6.1 °F 68% 29.89 in 9.0 mi West 11.5 mph 24.2 mph N/A   Overcast
1:52 PM 14.0 °F -3.0 °F 5.0 °F 67% 29.91 in 7.0 mi West 18.4 mph 29.9 mph N/A   Overcast
2:52 PM 15.1 °F -0.6 °F 5.0 °F 64% 29.96 in 6.0 mi West 16.1 mph 25.3 mph N/A   Haze
3:52 PM 14.0 °F 0.5 °F 5.0 °F 67% 29.99 in 5.0 mi West 11.5 mph 26.5 mph 0.00 in   Overcast
4:52 PM 14.0 °F 2.0 °F 6.1 °F 71% 30.02 in 9.0 mi West 9.2 mph 24.2 mph N/A   Overcast
5:28 PM 14.0 °F 0.5 °F 6.8 °F 73% 29.98 in 6.0 mi West 11.5 mph 21.9 mph N/A   Haze
6:29 PM 14.0 °F 3.9 °F 8.6 °F 79% 30.01 in 2.0 mi West 6.9 mph 16.1 mph 0.00 in Snow Light Snow
6:36 PM 14.0 °F 5.1 °F 8.6 °F 79% 30.02 in 1.5 mi West 5.8 mph - 0.00 in Snow Light Snow
6:45 PM 14.0 °F 2.0 °F 8.6 °F 79% 30.02 in 3.0 mi West 9.2 mph - 0.00 in Snow Light Snow
6:52 PM 14.0 °F 2.0 °F 7.0 °F 74% 30.10 in 7.0 mi WNW 9.2 mph 17.3 mph 0.00 in Snow Light Snow
7:05 PM 14.0 °F 2.0 °F 5.0 °F 67% 30.03 in 10.0 mi WNW 9.2 mph 23.0 mph 0.00 in   Overcast
7:52 PM 14.0 °F 0.5 °F 3.9 °F 64% 30.12 in 10.0 mi WNW 11.5 mph 23.0 mph 0.00 in   Mostly Cloudy
8:52 PM 12.9 °F -1.6 °F 3.0 °F 65% 30.16 in 10.0 mi WNW 12.7 mph 21.9 mph N/A   Overcast
9:52 PM 10.9 °F -4.1 °F -0.0 °F 61% 30.18 in 10.0 mi WNW 12.7 mph 23.0 mph N/A   Clear
10:52 PM 10.0 °F -1.9 °F -0.9 °F 61% 30.19 in 10.0 mi WNW 8.1 mph 17.3 mph N/A   Clear
11:52 PM 10.0 °F -3.7 °F -0.9 °F 61% 30.20 in 10.0 mi WNW 10.4 mph 18.4 mph N/A   Clear